Location: Clarion
(42.7316°N, 93.7330°W)
Time: 02:07:59
(UTC+00:00)

ATLAS 2AS CENTAUR R/B - Pass Details

Date: 22 April 2026
Orbit: 1052 x 1158 km, 63.7° (Epoch: 20 May)

Event Time Altitude Azimuth Distance (km) Brightness Sun altitude
Exits shadow 07:19:13 26° 293° (WNW) 1,982 4.1 -33.0°
Maximum altitude 07:21:15 30° 322° (NW) 1,817 4.1 -32.9°
Drops below altitude 10° 07:27:09 10° 22° (NNE) 2,889 5.8 -32.5°
Sets 07:30:10 0° 34° (NNE) 3,838 6.7 -32.3°
